| time (UTC) | temp F | wind direction | speed MPH | gust MPH | rain 1hr in | rain 24hr in | rain mn in | humidity % | barometer mb |
| 20260506155633 | 66 | 292 | 0.0 | 2.0 | 0.00 | 1.14 | 0.00 | 54 | 1000.0 |
| 20260506155132 | 67 | 225 | 2.0 | 6.0 | 0.00 | 1.14 | 0.00 | 53 | 1000.0 |
| 20260506154632 | 67 | 247 | 0.0 | 5.0 | 0.00 | 1.14 | 0.00 | 53 | 1000.0 |
| 20260506154132 | 68 | 202 | 0.0 | 2.0 | 0.00 | 1.14 | 0.00 | 53 | 1000.1 |
| 20260506153631 | 68 | 202 | 0.0 | 0.0 | 0.00 | 1.14 | 0.00 | 53 | 1000.0 |
| 20260506153131 | 68 | 157 | 0.0 | 0.0 | 0.00 | 1.14 | 0.00 | 53 | 999.9 |
| 20260506152631 | 68 | 157 | 0.0 | 0.0 | 0.00 | 1.14 | 0.00 | 54 | 1000.0 |
| 20260506152131 | 67 | 225 | 0.0 | 4.0 | 0.00 | 1.14 | 0.00 | 54 | 999.9 |
| 20260506151630 | 67 | 112 | 4.0 | 4.0 | 0.00 | 1.14 | 0.00 | 54 | 1000.1 |
| 20260506151130 | 67 | 112 | 4.0 | 4.0 | 0.00 | 1.14 | 0.00 | 52 | 999.7 |
| 20260506150630 | 68 | 202 | 0.0 | 6.0 | 0.00 | 1.14 | 0.00 | 52 | 999.7 |
| 20260506150129 | 69 | 247 | 6.0 | 6.0 | 0.00 | 1.14 | 0.00 | 52 | 999.8 |
| 20260506145629 | 69 | 225 | 3.0 | 9.0 | 0.00 | 1.14 | 0.00 | 51 | 1000.0 |
| 20260506145129 | 70 | 225 | 9.0 | 9.0 | 0.00 | 1.14 | 0.00 | 49 | 1000.0 |
| 20260506144629 | 71 | 180 | 3.0 | 5.0 | 0.00 | 1.14 | 0.00 | 48 | 1000.2 |
| 20260506144128 | 72 | 180 | 0.0 | 6.0 | 0.00 | 1.14 | 0.00 | 47 | 999.9 |
| 20260506143628 | 72 | 247 | 6.0 | 6.0 | 0.00 | 1.14 | 0.00 | 47 | 999.9 |
| 20260506143128 | 72 | 202 | 2.0 | 3.0 | 0.00 | 1.14 | 0.00 | 47 | 1000.0 |
| 20260506142627 | 72 | 157 | 0.0 | 3.0 | 0.00 | 1.14 | 0.00 | 48 | 999.9 |
| 20260506142127 | 71 | 112 | 3.0 | 3.0 | 0.00 | 1.14 | 0.00 | 48 | 1000.0 |
| 20260506141627 | 71 | 157 | 0.0 | 3.0 | 0.00 | 1.14 | 0.00 | 47 | 1000.0 |
| 20260506141127 | 73 | 202 | 3.0 | 3.0 | 0.00 | 1.14 | 0.00 | 46 | 999.9 |
| 20260506140626 | 73 | 225 | 0.0 | 6.0 | 0.00 | 1.14 | 0.00 | 45 | 1000.0 |
| 20260506140126 | 74 | 112 | 6.0 | 6.0 | 0.00 | 1.14 | 0.00 | 44 | 1000.1 |
| 20260506135626 | 75 | 90 | 4.0 | 4.0 | 0.00 | 1.14 | 0.00 | 44 | 1000.1 |
| 20260506135125 | 74 | 225 | 0.0 | 2.0 | 0.00 | 1.14 | 0.00 | 44 | 1000.1 |
| 20260506134625 | 73 | 225 | 0.0 | 5.0 | 0.00 | 1.14 | 0.00 | 44 | 1000.0 |
| 20260506134125 | 74 | 180 | 5.0 | 5.0 | 0.00 | 1.14 | 0.00 | 46 | 1000.1 |
| 20260506133625 | 74 | 157 | 5.0 | 5.0 | 0.00 | 1.14 | 0.00 | 46 | 1000.2 |
| 20260506133124 | 74 | 225 | 0.0 | 4.0 | 0.00 | 1.14 | 0.00 | 44 | 1000.1 |
| 20260506132624 | 75 | 202 | 4.0 | 4.0 | 0.00 | 1.14 | 0.00 | 45 | 1000.1 |
| 20260506132124 | 74 | 225 | 0.0 | 6.0 | 0.00 | 1.14 | 0.00 | 46 | 1000.1 |
| 20260506131623 | 74 | 225 | 6.0 | 6.0 | 0.00 | 1.14 | 0.00 | 45 | 1000.4 |
| 20260506131123 | 74 | 180 | 3.0 | 3.0 | 0.00 | 1.14 | 0.00 | 47 | 1000.2 |
| 20260506130623 | 73 | 202 | 0.0 | 3.0 | 0.00 | 1.14 | 0.00 | 47 | 1000.2 |
| 20260506130123 | 73 | 247 | 1.0 | 1.0 | 0.00 | 1.14 | 0.00 | 48 | 1000.2 |
| 20260506125622 | 71 | 247 | 0.0 | 0.0 | 0.00 | 1.14 | 0.00 | 49 | 1000.3 |
| 20260506125122 | 71 | 225 | 0.0 | 2.0 | 0.00 | 1.14 | 0.00 | 49 | 1000.4 |
| 20260506124622 | 71 | 270 | 2.0 | 4.0 | 0.00 | 1.14 | 0.00 | 48 | 1000.4 |
| 20260506124121 | 72 | 225 | 4.0 | 4.0 | 0.00 | 1.14 | 0.00 | 48 | 1000.4 |
| 20260506123621 | 71 | 180 | 0.0 | 8.0 | 0.00 | 1.14 | 0.00 | 48 | 1000.4 |
| 20260506123121 | 72 | 180 | 8.0 | 10.0 | 0.00 | 1.14 | 0.00 | 47 | 1000.4 |
| 20260506122621 | 72 | 225 | 10.0 | 10.0 | 0.00 | 1.14 | 0.00 | 47 | 1000.4 |
| 20260506122120 | 72 | 225 | 8.0 | 8.0 | 0.00 | 1.14 | 0.00 | 48 | 1000.4 |
| 20260506121620 | 71 | 270 | 8.0 | 8.0 | 0.00 | 1.14 | 0.00 | 47 | 1000.2 |
| 20260506121120 | 72 | 270 | 8.0 | 8.0 | 0.00 | 1.14 | 0.00 | 47 | 1000.1 |
| 20260506120619 | 73 | 270 | 5.0 | 5.0 | 0.00 | 1.14 | 0.00 | 48 | 1000.2 |
| 20260506120119 | 73 | 180 | 0.0 | 2.0 | 0.00 | 1.14 | 0.00 | 49 | 1000.2 |
| 20260506115619 | 72 | 202 | 0.0 | 4.0 | 0.00 | 1.14 | 0.00 | 49 | 1000.3 |
| 20260506115119 | 72 | 225 | 3.0 | 4.0 | 0.00 | 1.14 | 0.00 | 49 | 1000.4 |
| 20260506114618 | 70 | 202 | 4.0 | 4.0 | 0.00 | 1.14 | 0.00 | 51 | 1000.4 |
| 20260506114118 | 70 | 270 | 4.0 | 5.0 | 0.00 | 1.14 | 0.00 | 50 | 1000.2 |
| 20260506113618 | 70 | 270 | 4.0 | 4.0 | 0.00 | 1.14 | 0.00 | 52 | 1000.2 |
| 20260506113117 | 69 | 202 | 0.0 | 2.0 | 0.00 | 1.14 | 0.00 | 55 | 1000.3 |
| 20260506112617 | 68 | 247 | 0.0 | 3.0 | 0.00 | 1.14 | 0.00 | 56 | 1000.4 |
| 20260506112117 | 68 | 247 | 2.0 | 2.0 | 0.00 | 1.14 | 0.00 | 57 | 1000.5 |
| 20260506111617 | 66 | 270 | 0.0 | 5.0 | 0.00 | 1.14 | 0.00 | 57 | 1000.7 |
| 20260506111116 | 67 | 225 | 5.0 | 5.0 | 0.00 | 1.14 | 0.00 | 56 | 1000.5 |
| 20260506110616 | 68 | 247 | 3.0 | 6.0 | 0.00 | 1.14 | 0.00 | 55 | 1000.6 |
| 20260506110116 | 68 | 202 | 2.0 | 3.0 | 0.00 | 1.14 | 0.00 | 56 | 1000.6 |
| 20260506105615 | 67 | 270 | 3.0 | 3.0 | 0.00 | 1.14 | 0.00 | 56 | 1000.5 |
| 20260506105115 | 67 | 202 | 2.0 | 7.0 | 0.00 | 1.14 | 0.00 | 55 | 1000.6 |
| 20260506104615 | 68 | 180 | 3.0 | 6.0 | 0.00 | 1.14 | 0.00 | 57 | 1000.6 |
| 20260506104115 | 68 | 225 | 0.0 | 2.0 | 0.00 | 1.14 | 0.00 | 57 | 1000.4 |
| 20260506103614 | 67 | 135 | 2.0 | 4.0 | 0.00 | 1.14 | 0.00 | 59 | 1000.5 |
| 20260506103114 | 66 | 202 | 1.0 | 3.0 | 0.00 | 1.14 | 0.00 | 61 | 1000.6 |
| 20260506102614 | 64 | 112 | 0.0 | 0.0 | 0.00 | 1.14 | 0.00 | 64 | 1000.6 |
| 20260506102113 | 63 | 247 | 0.0 | 2.0 | 0.00 | 1.14 | 0.00 | 64 | 1000.7 |
| 20260506101613 | 63 | 202 | 0.0 | 8.0 | 0.00 | 1.14 | 0.00 | 64 | 1000.8 |
| 20260506101113 | 63 | 247 | 8.0 | 8.0 | 0.00 | 1.14 | 0.00 | 64 | 1000.8 |
| 20260506100613 | 62 | 225 | 0.0 | 0.0 | 0.00 | 1.14 | 0.00 | 63 | 1000.8 |
| 20260506100112 | 63 | 202 | 0.0 | 0.0 | 0.00 | 1.14 | 0.00 | 64 | 1000.9 |
| 20260506095612 | 64 | 202 | 0.0 | 0.0 | 0.00 | 1.14 | 0.00 | 62 | 1001.1 |
| 20260506095112 | 64 | 270 | 0.0 | 2.0 | 0.00 | 1.14 | 0.00 | 62 | 1001.0 |
| 20260506094611 | 64 | 247 | 0.0 | 3.0 | 0.00 | 1.14 | 0.00 | 62 | 1000.9 |
| 20260506094111 | 64 | 180 | 3.0 | 3.0 | 0.00 | 1.14 | 0.00 | 61 | 1000.9 |
| 20260506093611 | 65 | 270 | 3.0 | 6.0 | 0.00 | 1.14 | 0.00 | 60 | 1000.8 |
| 20260506093111 | 66 | 225 | 6.0 | 7.0 | 0.00 | 1.14 | 0.00 | 59 | 1000.8 |
| 20260506092610 | 67 | 202 | 7.0 | 7.0 | 0.00 | 1.14 | 0.00 | 59 | 1000.6 |
| 20260506092110 | 67 | 202 | 7.0 | 7.0 | 0.00 | 1.14 | 0.00 | 59 | 1000.6 |
| 20260506091610 | 67 | 202 | 0.0 | 4.0 | 0.00 | 1.14 | 0.00 | 59 | 1000.5 |
| 20260506091109 | 66 | 157 | 0.0 | 4.0 | 0.00 | 1.14 | 0.00 | 61 | 1000.6 |
| 20260506090609 | 65 | 225 | 0.0 | 0.0 | 0.00 | 1.14 | 0.00 | 62 | 1000.5 |
| 20260506090109 | 64 | 225 | 0.0 | 6.0 | 0.00 | 1.14 | 0.00 | 62 | 1000.3 |
| 20260506085608 | 63 | 225 | 2.0 | 2.0 | 0.00 | 1.14 | 0.00 | 64 | 1000.3 |
| 20260506085108 | 63 | 225 | 0.0 | 6.0 | 0.00 | 1.14 | 0.00 | 64 | 1000.2 |
| 20260506084608 | 63 | 225 | 6.0 | 6.0 | 0.00 | 1.14 | 0.00 | 66 | 1000.3 |
| 20260506084108 | 63 | 247 | 3.0 | 5.0 | 0.00 | 1.14 | 0.00 | 66 | 1000.3 |
| 20260506083607 | 62 | 225 | 4.0 | 5.0 | 0.00 | 1.14 | 0.00 | 67 | 1000.2 |
| 20260506083107 | 62 | 202 | 5.0 | 5.0 | 0.00 | 1.14 | 0.00 | 67 | 1000.2 |
| 20260506082607 | 62 | 202 | 4.0 | 7.0 | 0.00 | 1.14 | 0.00 | 66 | 1000.2 |
| 20260506082107 | 63 | 202 | 7.0 | 7.0 | 0.00 | 1.14 | 0.00 | 67 | 1000.2 |
| 20260506081606 | 63 | 247 | 1.0 | 2.0 | 0.00 | 1.14 | 0.00 | 67 | 1000.1 |
| 20260506081106 | 62 | 202 | 2.0 | 4.0 | 0.00 | 1.14 | 0.00 | 68 | 1000.2 |
| 20260506080606 | 62 | 202 | 3.0 | 5.0 | 0.00 | 1.14 | 0.00 | 69 | 1000.1 |
| 20260506080105 | 62 | 202 | 5.0 | 5.0 | 0.00 | 1.14 | 0.00 | 68 | 1000.0 |
| 20260506073104 | 62 | 202 | 5.0 | 5.0 | 0.00 | 1.14 | 0.00 | 68 | 999.8 |
| 20260506072603 | 63 | 225 | 4.0 | 8.0 | 0.00 | 1.14 | 0.00 | 67 | 999.9 |
| 20260506072103 | 64 | 247 | 8.0 | 8.0 | 0.00 | 1.14 | 0.00 | 67 | 999.8 |
| 20260506071603 | 65 | 112 | 4.0 | 4.0 | 0.00 | 1.14 | 0.00 | 69 | 999.9 |
| 20260506071102 | 64 | 247 | 0.0 | 0.0 | 0.00 | 1.14 | 0.00 | 69 | 1000.0 |
| 20260506070602 | 65 | 225 | 0.0 | 0.0 | 0.00 | 1.14 | 0.00 | 69 | 1000.0 |
| 20260506062100 | 57 | 112 | 0.0 | 0.0 | 0.00 | 1.14 | 0.00 | 88 | 999.9 |
| 20260506061559 | 58 | 180 | 0.0 | 1.0 | 0.00 | 1.14 | 0.00 | 88 | 1000.1 |
| 20260506061059 | 58 | 90 | 1.0 | 6.0 | 0.00 | 1.14 | 0.00 | 89 | 1000.1 |
| 20260506060559 | 58 | 67 | 0.0 | 0.0 | 0.00 | 1.14 | 0.00 | 90 | 1000.0 |
| 20260506051056 | 52 | 225 | 0.0 | 0.0 | 0.00 | 1.14 | 0.00 | 93 | 1000.3 |
| 20260506050555 | 52 | 292 | 0.0 | 0.0 | 0.00 | 1.14 | 0.00 | 93 | 1000.2 |
| 20260506045054 | 52 | 270 | 0.0 | 0.0 | 0.00 | 1.14 | 0.00 | 92 | 1000.1 |
| 20260506044554 | 52 | 270 | 0.0 | 0.0 | 0.00 | 1.14 | 0.00 | 92 | 1000.1 |
| 20260506044054 | 52 | 67 | 0.0 | 0.0 | 0.00 | 1.14 | 0.00 | 92 | 1000.1 |
| 20260506043554 | 52 | 90 | 0.0 | 0.0 | 0.00 | 1.14 | 0.00 | 92 | 1000.1 |
| 20260506043053 | 52 | 90 | 0.0 | 0.0 | 0.00 | 1.14 | 0.00 | 92 | 1000.0 |
| 20260506042553 | 52 | 67 | 0.0 | 0.0 | 0.00 | 1.14 | 0.00 | 92 | 999.9 |
| 20260506042053 | 52 | 67 | 0.0 | 0.0 | 0.00 | 1.14 | 0.00 | 92 | 999.8 |
| 20260506041552 | 52 | 67 | 0.0 | 0.0 | 0.00 | 1.14 | 0.00 | 92 | 999.8 |
| 20260506041052 | 52 | 180 | 0.0 | 0.0 | 0.00 | 1.14 | 0.00 | 92 | 999.8 |
| 20260506040552 | 52 | 180 | 0.0 | 0.0 | 0.00 | 1.14 | 0.00 | 92 | 999.8 |
| 20260506040052 | 52 | 180 | 0.0 | 0.0 | 0.00 | 1.16 | 0.00 | 92 | 999.7 |
| 20260506035551 | 52 | 180 | 0.0 | 0.0 | 0.00 | 1.16 | 0.00 | 92 | 999.9 |
| 20260506035051 | 52 | 180 | 0.0 | 0.0 | 0.00 | 1.16 | 0.00 | 92 | 1000.0 |
| 20260506034551 | 52 | 180 | 0.0 | 0.0 | 0.00 | 1.16 | 0.00 | 92 | 1000.0 |
| 20260506034050 | 52 | 180 | 0.0 | 0.0 | 0.00 | 1.16 | 0.00 | 92 | 999.9 |
| 20260506033550 | 52 | 180 | 0.0 | 0.0 | 0.00 | 1.16 | 0.00 | 92 | 1000.0 |
| 20260506033050 | 52 | 180 | 0.0 | 0.0 | 0.00 | 1.16 | 0.00 | 92 | 1000.0 |
| 20260506032549 | 52 | 180 | 0.0 | 0.0 | 0.00 | 1.16 | 0.00 | 92 | 1000.1 |
| 20260506032049 | 52 | 67 | 0.0 | 0.0 | 0.00 | 1.16 | 0.00 | 92 | 1000.0 |
| 20260506031549 | 52 | 67 | 0.0 | 0.0 | 0.00 | 1.16 | 0.00 | 92 | 1000.0 |
| 20260506031049 | 52 | 67 | 0.0 | 0.0 | 0.00 | 1.16 | 0.00 | 92 | 999.9 |
| 20260506030548 | 52 | 67 | 0.0 | 0.0 | 0.00 | 1.16 | 0.00 | 92 | 1000.2 |
| 20260506030048 | 52 | 67 | 0.0 | 0.0 | 0.00 | 1.16 | 0.00 | 92 | 1000.2 |
| 20260506025548 | 52 | 67 | 0.0 | 0.0 | 0.00 | 1.16 | 0.00 | 92 | 1000.2 |
| 20260506025048 | 52 | 67 | 0.0 | 0.0 | 0.00 | 1.16 | 0.00 | 92 | 1000.3 |
| 20260506024547 | 52 | 67 | 0.0 | 0.0 | 0.00 | 1.16 | 0.00 | 92 | 1000.4 |
| 20260506024047 | 52 | 67 | 0.0 | 0.0 | 0.00 | 1.16 | 0.00 | 92 | 1000.3 |
| 20260506023547 | 52 | 67 | 0.0 | 0.0 | 0.00 | 1.16 | 0.00 | 92 | 1000.4 |
| 20260506023046 | 52 | 67 | 0.0 | 0.0 | 0.00 | 1.16 | 0.00 | 92 | 1000.4 |
| 20260506022546 | 52 | 67 | 0.0 | 0.0 | 0.00 | 1.16 | 0.00 | 92 | 1000.5 |
| 20260506022046 | 52 | 67 | 0.0 | 0.0 | 0.00 | 1.16 | 0.00 | 92 | 1000.5 |
| 20260506021546 | 52 | 67 | 0.0 | 0.0 | 0.00 | 1.16 | 0.00 | 92 | 1000.5 |
| 20260506021045 | 52 | 67 | 0.0 | 0.0 | 0.00 | 1.16 | 0.00 | 92 | 1000.5 |
| 20260506020545 | 52 | 67 | 0.0 | 0.0 | 0.00 | 1.16 | 0.00 | 92 | 1000.5 |
| 20260506020045 | 52 | 67 | 0.0 | 0.0 | 0.00 | 1.16 | 0.00 | 92 | 1000.5 |
| 20260506015544 | 52 | 67 | 0.0 | 0.0 | 0.00 | 1.16 | 0.00 | 92 | 1000.5 |
| 20260506015044 | 52 | 67 | 0.0 | 0.0 | 0.00 | 1.16 | 0.00 | 92 | 1000.5 |
| 20260506014544 | 52 | 67 | 0.0 | 0.0 | 0.00 | 1.16 | 0.00 | 92 | 1000.4 |
| 20260506014044 | 52 | 45 | 0.0 | 0.0 | 0.00 | 1.16 | 0.00 | 91 | 1000.5 |
| 20260506013543 | 52 | 315 | 0.0 | 0.0 | 0.00 | 1.16 | 0.00 | 91 | 1000.7 |
| 20260506013043 | 52 | 315 | 0.0 | 0.0 | 0.00 | 1.16 | 0.00 | 91 | 1000.8 |
| 20260506012543 | 52 | 315 | 0.0 | 0.0 | 0.00 | 1.16 | 0.00 | 91 | 1000.7 |
| 20260506012042 | 52 | 315 | 0.0 | 0.0 | 0.00 | 1.16 | 0.00 | 91 | 1000.7 |
| 20260506011542 | 52 | 292 | 0.0 | 0.0 | 0.00 | 1.16 | 0.00 | 91 | 1000.7 |
| 20260506011042 | 52 | 292 | 0.0 | 0.0 | 0.00 | 1.16 | 0.00 | 91 | 1000.8 |
| 20260506010541 | 52 | 292 | 0.0 | 0.0 | 0.00 | 1.16 | 0.00 | 92 | 1000.8 |
| 20260506010041 | 52 | 292 | 0.0 | 0.0 | 0.00 | 1.16 | 0.00 | 92 | 1000.6 |
| 20260506005541 | 52 | 292 | 0.0 | 0.0 | 0.00 | 1.16 | 0.00 | 92 | 1000.6 |
| 20260506005041 | 52 | 0 | 0.0 | 0.0 | 0.00 | 1.16 | 0.00 | 92 | 1000.6 |
| 20260506004540 | 52 | 0 | 0.0 | 0.0 | 0.00 | 1.16 | 0.00 | 91 | 1000.9 |
| 20260506004040 | 52 | 0 | 0.0 | 0.0 | 0.00 | 1.16 | 0.00 | 91 | 1000.9 |
| 20260506003540 | 52 | 0 | 0.0 | 0.0 | 0.00 | 1.16 | 0.00 | 91 | 1000.9 |
| 20260506003039 | 52 | 0 | 0.0 | 0.0 | 0.00 | 1.16 | 0.00 | 91 | 1000.8 |
| 20260506002539 | 52 | 0 | 0.0 | 0.0 | 0.00 | 1.16 | 0.00 | 91 | 1000.8 |
| 20260506002039 | 52 | 0 | 0.0 | 0.0 | 0.00 | 1.16 | 0.00 | 91 | 1000.8 |
| 20260506001539 | 52 | 0 | 0.0 | 0.0 | 0.00 | 1.16 | 0.00 | 92 | 1000.8 |
| 20260506001038 | 52 | 0 | 0.0 | 0.0 | 0.02 | 1.16 | 0.00 | 91 | 1000.9 |
| 20260506000538 | 52 | 22 | 0.0 | 0.0 | 0.02 | 1.16 | 0.00 | 92 | 1000.9 |
| 20260506000038 | 52 | 22 | 0.0 | 0.0 | 0.02 | 1.16 | 0.00 | 91 | 1000.9 |
| 20260505235537 | 52 | 315 | 0.0 | 0.0 | 0.02 | 1.16 | 0.00 | 91 | 1001.1 |
| 20260505235037 | 52 | 315 | 0.0 | 0.0 | 0.02 | 1.16 | 0.00 | 91 | 1001.1 |
| 20260505234537 | 53 | 315 | 0.0 | 0.0 | 0.02 | 1.16 | 0.00 | 91 | 1001.1 |
| 20260505234037 | 53 | 45 | 0.0 | 0.0 | 0.02 | 1.16 | 0.00 | 91 | 1001.1 |
| 20260505233536 | 53 | 22 | 0.0 | 0.0 | 0.02 | 1.16 | 0.00 | 91 | 1001.1 |
| 20260505233036 | 53 | 0 | 0.0 | 0.0 | 0.02 | 1.16 | 0.00 | 91 | 1001.1 |
| 20260505232536 | 53 | 0 | 0.0 | 0.0 | 0.04 | 1.16 | 0.00 | 91 | 1001.2 |
| 20260505232035 | 53 | 292 | 0.0 | 0.0 | 0.04 | 1.16 | 0.00 | 91 | 1001.2 |
| 20260505231535 | 53 | 292 | 0.0 | 0.0 | 0.04 | 1.16 | 0.00 | 91 | 1001.1 |
| 20260505231035 | 53 | 292 | 0.0 | 0.0 | 0.02 | 1.14 | 0.00 | 91 | 1001.2 |
| 20260505230535 | 53 | 292 | 0.0 | 0.0 | 0.02 | 1.14 | 0.00 | 91 | 1001.2 |
| 20260505230034 | 53 | 315 | 0.0 | 0.0 | 0.04 | 1.14 | 0.00 | 91 | 1001.2 |
| 20260505225534 | 53 | 292 | 0.0 | 0.0 | 0.04 | 1.14 | 0.00 | 91 | 1001.2 |
| 20260505225034 | 53 | 270 | 0.0 | 0.0 | 0.04 | 1.14 | 0.00 | 91 | 1001.3 |
| 20260505224533 | 53 | 112 | 0.0 | 0.0 | 0.06 | 1.14 | 0.00 | 91 | 1001.3 |
| 20260505224033 | 54 | 112 | 0.0 | 0.0 | 0.06 | 1.14 | 0.00 | 91 | 1001.2 |
| 20260505223533 | 54 | 112 | 0.0 | 0.0 | 0.06 | 1.14 | 0.00 | 91 | 1001.2 |
| 20260505223033 | 54 | 112 | 0.0 | 0.0 | 0.06 | 1.12 | 0.00 | 91 | 1001.1 |
| 20260505222532 | 54 | 112 | 0.0 | 0.0 | 0.06 | 1.12 | 0.00 | 91 | 1001.3 |
| 20260505222032 | 54 | 112 | 0.0 | 0.0 | 0.06 | 1.12 | 0.00 | 91 | 1001.4 |
| 20260505221532 | 54 | 112 | 0.0 | 0.0 | 0.08 | 1.12 | 0.00 | 91 | 1001.4 |
| 20260505221031 | 54 | 112 | 0.0 | 0.0 | 0.10 | 1.12 | 0.00 | 90 | 1001.5 |
| 20260505220531 | 54 | 112 | 0.0 | 0.0 | 0.10 | 1.10 | 0.00 | 90 | 1001.5 |
| 20260505220031 | 54 | 112 | 0.0 | 0.0 | 0.10 | 1.10 | 0.00 | 90 | 1001.6 |
| 20260505215531 | 54 | 247 | 0.0 | 0.0 | 0.12 | 1.10 | 0.00 | 90 | 1001.6 |
| 20260505215030 | 54 | 337 | 0.0 | 0.0 | 0.12 | 1.10 | 0.00 | 90 | 1001.5 |
| 20260505214530 | 54 | 67 | 0.0 | 0.0 | 0.12 | 1.08 | 0.00 | 90 | 1001.7 |
| 20260505214030 | 54 | 67 | 0.0 | 0.0 | 0.12 | 1.08 | 0.00 | 90 | 1001.7 |
| 20260505213529 | 54 | 45 | 0.0 | 0.0 | 0.14 | 1.08 | 0.00 | 90 | 1001.7 |
| 20260505213029 | 54 | 45 | 0.0 | 0.0 | 0.16 | 1.06 | 0.00 | 90 | 1001.8 |
| 20260505212529 | 54 | 90 | 0.0 | 0.0 | 0.16 | 1.06 | 0.00 | 90 | 1001.7 |
| 20260505212029 | 54 | 225 | 0.0 | 0.0 | 0.14 | 1.03 | 0.00 | 90 | 1001.8 |
| 20260505211528 | 54 | 225 | 0.0 | 0.0 | 0.14 | 1.03 | 0.00 | 90 | 1001.8 |
| 20260505211028 | 54 | 225 | 0.0 | 0.0 | 0.16 | 1.01 | 0.00 | 90 | 1001.9 |
| 20260505210528 | 54 | 225 | 0.0 | 0.0 | 0.18 | 0.99 | 0.00 | 90 | 1001.9 |
| 20260505210027 | 54 | 247 | 0.0 | 0.0 | 0.20 | 0.99 | 0.00 | 90 | 1001.9 |
| 20260505205527 | 54 | 225 | 0.0 | 0.0 | 0.40 | 0.97 | 0.00 | 90 | 1001.9 |
| 20260505205027 | 54 | 247 | 0.0 | 0.0 | 0.57 | 0.97 | 0.00 | 90 | 1001.9 |
| 20260505204527 | 54 | 270 | 0.0 | 0.0 | 0.67 | 0.95 | 0.00 | 89 | 1001.8 |
| 20260505204026 | 54 | 270 | 0.0 | 0.0 | 0.71 | 0.93 | 0.00 | 89 | 1001.7 |
| 20260505203526 | 55 | 202 | 0.0 | 0.0 | 0.77 | 0.93 | 0.00 | 89 | 1001.6 |
| 20260505203026 | 55 | 180 | 0.0 | 0.0 | 0.75 | 0.89 | 0.00 | 89 | 1001.5 |
| 20260505202525 | 55 | 67 | 0.0 | 0.0 | 0.75 | 0.89 | 0.00 | 89 | 1001.4 |
| 20260505202025 | 55 | 67 | 0.0 | 0.0 | 0.75 | 0.89 | 0.00 | 88 | 1001.5 |
| 20260505201525 | 55 | 67 | 0.0 | 0.0 | 0.81 | 0.89 | 0.00 | 88 | 1001.5 |
| 20260505201025 | 55 | 67 | 0.0 | 0.0 | 0.75 | 0.81 | 0.00 | 88 | 1001.5 |
| 20260505200524 | 55 | 67 | 0.0 | 0.0 | 0.73 | 0.79 | 0.00 | 88 | 1001.6 |
| 20260505200024 | 56 | 270 | 0.0 | 0.0 | 0.69 | 0.75 | 0.00 | 88 | 1001.5 |
| 20260505195524 | 56 | 67 | 0.0 | 0.0 | 0.44 | 0.48 | 0.00 | 88 | 1001.8 |
| 20260505195023 | 56 | 270 | 0.0 | 0.0 | 0.30 | 0.34 | 0.00 | 88 | 1001.7 |
| 20260505194523 | 56 | 270 | 0.0 | 0.0 | 0.20 | 0.24 | 0.00 | 88 | 1001.7 |
| 20260505194023 | 57 | 270 | 0.0 | 0.0 | 0.14 | 0.18 | 0.00 | 87 | 1001.7 |
| 20260505193522 | 57 | 270 | 0.0 | 0.0 | 0.12 | 0.16 | 0.00 | 87 | 1001.6 |
| 20260505193022 | 57 | 247 | 0.0 | 0.0 | 0.10 | 0.14 | 0.00 | 87 | 1001.7 |
| 20260505192522 | 57 | 270 | 0.0 | 0.0 | 0.10 | 0.14 | 0.00 | 87 | 1001.7 |
| 20260505192022 | 57 | 270 | 0.0 | 0.0 | 0.04 | 0.08 | 0.00 | 86 | 1001.7 |
| 20260505191521 | 57 | 270 | 0.0 | 0.0 | 0.04 | 0.08 | 0.00 | 86 | 1001.9 |
| 20260505191021 | 57 | 247 | 0.0 | 0.0 | 0.04 | 0.06 | 0.00 | 86 | 1001.9 |
| 20260505190521 | 57 | 247 | 0.0 | 0.0 | 0.04 | 0.06 | 0.00 | 86 | 1001.8 |
| 20260505190021 | 57 | 247 | 0.0 | 0.0 | 0.04 | 0.06 | 0.00 | 86 | 1001.9 |
| 20260505185520 | 57 | 247 | 0.0 | 0.0 | 0.02 | 0.04 | 0.00 | 85 | 1001.8 |
| 20260505185020 | 57 | 247 | 0.0 | 0.0 | 0.02 | 0.04 | 0.00 | 85 | 1001.7 |
| 20260505184520 | 57 | 247 | 0.0 | 0.0 | 0.02 | 0.04 | 0.00 | 85 | 1001.5 |
| 20260505184019 | 57 | 247 | 0.0 | 0.0 | 0.02 | 0.04 | 0.00 | 84 | 1001.5 |
| 20260505183519 | 57 | 247 | 0.0 | 0.0 | 0.02 | 0.04 | 0.00 | 84 | 1001.6 |
| 20260505183019 | 57 | 247 | 0.0 | 0.0 | 0.02 | 0.04 | 0.00 | 84 | 1001.6 |
| 20260505182518 | 57 | 225 | 0.0 | 0.0 | 0.02 | 0.04 | 0.00 | 83 | 1001.6 |
| 20260505182018 | 57 | 225 | 0.0 | 0.0 | 0.02 | 0.04 | 0.00 | 83 | 1001.7 |
| 20260505181518 | 57 | 225 | 0.0 | 0.0 | 0.02 | 0.04 | 0.00 | 83 | 1001.6 |
| 20260505181018 | 57 | 225 | 0.0 | 0.0 | 0.00 | 0.02 | 0.00 | 82 | 1001.6 |
| 20260505180517 | 57 | 157 | 0.0 | 0.0 | 0.00 | 0.02 | 0.00 | 81 | 1001.7 |
| 20260505180017 | 57 | 157 | 0.0 | 0.0 | 0.00 | 0.02 | 0.00 | 81 | 1001.7 |
| 20260505175517 | 58 | 157 | 0.0 | 0.0 | 0.00 | 0.04 | 0.00 | 81 | 1001.6 |
| 20260505175016 | 58 | 157 | 0.0 | 0.0 | 0.00 | 0.04 | 0.00 | 80 | 1001.5 |
| 20260505174516 | 58 | 157 | 0.0 | 0.0 | 0.00 | 0.04 | 0.00 | 80 | 1001.5 |
| 20260505174016 | 58 | 135 | 0.0 | 0.0 | 0.00 | 0.04 | 0.00 | 79 | 1001.6 |
| 20260505173516 | 58 | 45 | 0.0 | 0.0 | 0.00 | 0.04 | 0.00 | 79 | 1001.6 |
| 20260505173015 | 59 | 45 | 0.0 | 1.0 | 0.00 | 0.04 | 0.00 | 79 | 1001.7 |
| 20260505172515 | 60 | 90 | 0.0 | 0.0 | 0.00 | 0.04 | 0.00 | 78 | 1001.6 |
| 20260505172015 | 60 | 112 | 0.0 | 5.0 | 0.00 | 0.04 | 0.00 | 77 | 1001.7 |
| 20260505171514 | 60 | 67 | 5.0 | 5.0 | 0.00 | 0.04 | 0.00 | 77 | 1001.6 |
| 20260505171014 | 60 | 67 | 0.0 | 4.0 | 0.00 | 0.04 | 0.00 | 75 | 1001.6 |
| 20260505170514 | 61 | 45 | 4.0 | 4.0 | 0.00 | 0.04 | 0.00 | 74 | 1001.5 |
| 20260505170014 | 61 | 67 | 0.0 | 5.0 | 0.00 | 0.04 | 0.00 | 74 | 1001.4 |
| 20260505165513 | 61 | 90 | 1.0 | 6.0 | 0.00 | 0.04 | 0.00 | 73 | 1001.6 |
| 20260505165013 | 62 | 45 | 6.0 | 7.0 | 0.00 | 0.04 | 0.00 | 73 | 1001.6 |
| 20260505164513 | 62 | 45 | 6.0 | 7.0 | 0.00 | 0.04 | 0.00 | 71 | 1001.8 |
| 20260505164012 | 62 | 67 | 0.0 | 4.0 | 0.00 | 0.04 | 0.00 | 71 | 1001.7 |
| 20260505163512 | 63 | 67 | 3.0 | 7.0 | 0.00 | 0.04 | 0.00 | 70 | 1001.6 |
| 20260505163012 | 63 | 45 | 7.0 | 7.0 | 0.00 | 0.04 | 0.00 | 69 | 1001.7 |
| 20260505162512 | 63 | 90 | 0.0 | 1.0 | 0.00 | 0.04 | 0.00 | 69 | 1001.7 |
| 20260505162011 | 64 | 67 | 1.0 | 4.0 | 0.00 | 0.04 | 0.00 | 68 | 1001.8 |
| 20260505161511 | 64 | 67 | 4.0 | 4.0 | 0.00 | 0.04 | 0.00 | 67 | 1001.8 |
| 20260505161011 | 64 | 67 | 4.0 | 4.0 | 0.00 | 0.04 | 0.00 | 67 | 1001.8 |
| 20260505160510 | 64 | 67 | 0.0 | 2.0 | 0.00 | 0.04 | 0.00 | 67 | 1002.0 |